[[{"header":{"parameterUnit":"m.s-1","parameterCategory":1,"la1":30.2992,"la2":30.254,"lo1":-89.0895,"lo2":-89.0443,"dy":0.0025,"dx":0.0025,"nx":19,"ny":19,"refTime":"2026-05-04T03:00:00:Z","depth":0,"parameterNumber":2,"parameterNumberName":"U-component_of_WINDS"},"data":[0,0,0,-0.2081,-0.208,-0.2009,-0.2009,-0.1928,-0.1927,0,0,0,0,0,0,0,0,0,0,0,-0.2108,-0.2107,-0.2081,-0.208,-0.2009,-0.2009,-0.1928,-0.1927,0,0,0,0,0,0,0,0,0,0,0,-0.2108,-0.2108,-0.2107,-0.2079,-0.2009,-0.2009,-0.1928,-0.1978,0,0,0,0,0,0,0,0,0,0,-0.2045,-0.2075,-0.2108,-0.2107,-0.2079,-0.2009,-0.2008,-0.1981,-0.1975,-0.1964,0,-0.1956,0,-0.1941,-0.1923,-0.1922,0,0,0,-0.2075,-0.208,-0.2056,-0.2107,-0.2078,-0.2009,-0.204,-0.1977,-0.1971,-0.1957,-0.1955,-0.1952,-0.1939,-0.1922,-0.1922,-0.1875,-0.1875,0,0,-0.2079,-0.2098,-0.206,-0.2052,-0.2063,-0.2042,-0.2037,-0.1974,-0.1972,-0.1955,-0.195,-0.1938,-0.1922,-0.1921,-0.1875,-0.1875,0,0,0,-0.2093,-0.2101,-0.2078,-0.2056,-0.2042,-0.204,-0.2035,-0.1975,-0.1966,-0.1949,-0.1937,-0.1921,-0.1921,-0.1875,-0.1875,-0.1892,0,0,0,-0.2096,-0.2109,-0.208,-0.2091,-0.2044,-0.2008,-0.2038,-0.197,-0.1963,-0.1937,-0.1921,-0.192,-0.1875,-0.1875,-0.1892,-0.1897,0,0,0,-0.211,-0.2111,-0.2103,-0.2092,-0.2062,-0.2008,-0.1995,-0.1968,-0.1956,-0.1922,-0.192,-0.1875,-0.1875,-0.1891,-0.1896,-0.189,0,0,0,-0.2132,-0.2119,-0.2103,-0.2084,-0.2063,-0.202,-0.1995,-0.1962,-0.1936,-0.1921,-0.1875,-0.1875,-0.1891,-0.1895,-0.189,-0.1888,-0.1889,0,0,-0.2126,-0.2118,-0.2106,-0.209,-0.2054,-0.2029,-0.1996,-0.1953,-0.1933,-0.1895,-0.1894,-0.1892,-0.1896,-0.189,-0.189,-0.1891,0,0,0,-0.211,-0.2101,-0.2088,-0.2064,-0.2032,-0.2005,-0.1966,-0.1951,-0.1918,-0.1917,-0.1888,-0.1889,-0.1885,-0.1884,-0.1884,-0.188,-0.1875,-0.1875,-0.1875,-0.2128,-0.2103,-0.2081,-0.2048,-0.2025,-0.1986,-0.1965,-0.1938,-0.1919,-0.1913,-0.1901,-0.1904,-0.1903,-0.1903,-0.1899,-0.1898,-0.1898,-0.1898,-0.1899,-0.2116,-0.21,-0.2076,-0.2046,-0.202,-0.1995,-0.1957,-0.1945,-0.1918,-0.191,-0.1905,-0.1899,-0.1905,-0.19,-0.19,-0.1899,-0.1899,-0.1899,-0.1899,-0.2124,-0.2112,-0.2094,-0.2058,-0.2033,-0.2,-0.1976,-0.1953,-0.1932,-0.1927,-0.1913,-0.1912,-0.1909,-0.1922,-0.1922,-0.1922,-0.1922,-0.1922,-0.1922,-0.214,-0.2119,-0.2101,-0.2067,-0.2049,-0.2023,-0.1985,-0.1967,-0.1942,-0.1927,-0.1927,-0.1909,-0.1911,-0.1911,-0.1922,-0.1922,-0.1922,-0.1922,-0.1922,-0.2137,-0.2134,-0.2106,-0.2088,-0.2047,-0.2024,-0.1997,-0.1962,-0.1944,-0.1933,-0.1917,-0.1922,-0.1913,-0.1912,-0.1912,-0.1922,-0.1922,-0.1922,-0.1922,-0.2143,-0.2137,-0.2104,-0.2077,-0.2049,-0.2021,-0.1991,-0.1962,-0.1932,-0.1919,-0.1915,-0.1914,-0.1914,-0.1905,-0.1904,-0.1904,-0.1912,-0.1912,-0.1912,-0.214,-0.213,-0.2108,-0.2078,-0.2045,-0.2017,-0.1989,-0.196,-0.1925,-0.1911,-0.1909,-0.191,-0.1908,-0.1908,-0.1893,-0.1892,-0.1892,0,0]},{"header":{"parameterUnit":"m.s-1","parameterCategory":1,"la1":30.2992,"la2":30.254,"lo1":-89.0895,"lo2":-89.0443,"dy":0.0025,"dx":0.0025,"nx":19,"ny":19,"refTime":"2026-05-04T03:00:00:Z","depth":0,"parameterNumber":3,"parameterNumberName":"V-component_of_WINDS"},"data":[0,0,0,3.8084,3.8083,3.8018,3.8018,3.7931,3.793,0,0,0,0,0,0,0,0,0,0,0,3.8104,3.8103,3.8084,3.8083,3.8018,3.8018,3.7931,3.793,0,0,0,0,0,0,0,0,0,0,0,3.8104,3.8104,3.8103,3.8083,3.8018,3.8018,3.7931,3.7981,0,0,0,0,0,0,0,0,0,0,3.8044,3.8063,3.8104,3.8103,3.8082,3.8018,3.8018,3.7983,3.7978,3.796,0,3.7946,0,3.7937,3.7924,3.7924,0,0,0,3.8082,3.8068,3.8051,3.8103,3.8082,3.8018,3.8047,3.798,3.7974,3.7952,3.7945,3.7942,3.7936,3.7924,3.7923,3.783,3.783,0,0,3.8085,3.8092,3.8055,3.8047,3.806,3.8049,3.8045,3.7976,3.7968,3.7945,3.794,3.7934,3.7923,3.7923,3.783,3.783,0,0,0,3.8096,3.8094,3.8079,3.805,3.8039,3.8047,3.8043,3.7971,3.7965,3.7939,3.7933,3.7923,3.7922,3.7831,3.783,3.7819,0,0,0,3.8098,3.8101,3.808,3.8083,3.8041,3.8005,3.8038,3.797,3.7962,3.7934,3.7923,3.7921,3.7831,3.783,3.7821,3.7813,0,0,0,3.8108,3.8102,3.8093,3.8084,3.8057,3.8006,3.7996,3.7968,3.7959,3.7924,3.7921,3.7831,3.7831,3.7822,3.7814,3.779,0,0,0,3.8119,3.8082,3.8093,3.805,3.8057,3.8001,3.7997,3.7953,3.7922,3.7922,3.7831,3.783,3.7822,3.7815,3.7792,3.7772,3.7764,0,0,3.8076,3.8078,3.8052,3.8059,3.8003,3.801,3.7951,3.7914,3.7903,3.7854,3.7852,3.782,3.7814,3.7791,3.772,3.7714,0,0,0,3.804,3.8022,3.8005,3.7978,3.7952,3.7928,3.79,3.7887,3.7846,3.7881,3.7805,3.7801,3.7787,3.7777,3.7772,3.7759,3.7826,3.7826,3.7826,3.7988,3.7979,3.7935,3.7918,3.7891,3.7865,3.7841,3.7818,3.7814,3.7796,3.7781,3.774,3.7729,3.7725,3.7712,3.777,3.777,3.777,3.777,3.7924,3.7897,3.7895,3.7852,3.7842,3.7804,3.7776,3.7775,3.7737,3.775,3.7737,3.7752,3.7719,3.7707,3.7769,3.7769,3.777,3.777,3.777,3.7889,3.7874,3.7861,3.7821,3.7791,3.7773,3.7738,3.7729,3.7719,3.7707,3.769,3.769,3.7689,3.77,3.7699,3.7699,3.7699,3.7699,3.7699,3.7858,3.7843,3.7816,3.7786,3.7768,3.7742,3.7715,3.7696,3.7671,3.7667,3.7667,3.7664,3.7719,3.7732,3.7697,3.7697,3.7697,3.7697,3.7698,3.7796,3.7809,3.7768,3.775,3.7714,3.7684,3.7674,3.7635,3.7617,3.76,3.76,3.7642,3.7641,3.7645,3.7656,3.7603,3.7603,3.7603,3.7603,3.7766,3.7766,3.7722,3.7694,3.7665,3.7652,3.7602,3.7581,3.756,3.7548,3.7554,3.7568,3.7573,3.7569,3.7575,3.7585,3.7515,3.7515,3.7515,3.7728,3.7725,3.7686,3.7669,3.7641,3.7615,3.7569,3.7534,3.7512,3.7511,3.7538,3.7542,3.7564,3.7573,3.7571,3.758,3.7598,0,0]}]]